EW7614 Weather Reports


Display with metric or nautical units.
time (UTC)temp
F
wind
direction
speed
MPH
gust
MPH
rain 1hr
in
rain 24hr
in
rain mn
in
humidity
%
barometer
mb
20260504090108 66 196 0.0 3.0 0.00 0.00 0.00 45 1010.9
20260504081552 62 134 0.0 1.0 0.00 0.00 0.00 52 1011.3
20260504050023 47 270 0.0 0.0 0.00 0.00 0.00 79 1012.4
20260504044524 45 270 0.0 0.0 0.00 0.00 0.00 83 1012.5
20260504043032 43 267 0.0 0.0 0.00 0.00 0.00 85 1012.4
20260504041522 44 267 0.0 1.0 0.00 0.00 0.00 82 1012.1
20260504040023 45 226 0.0 0.0 0.00 0.00 0.00 82 1012.0
20260504034516 46 244 0.0 1.0 0.00 0.00 0.00 79 1012.1
20260504033015 45 245 0.0 0.0 0.00 0.00 0.00 82 1012.1
20260504031515 46 220 0.0 0.0 0.00 0.00 0.00 77 1012.1
20260504030017 46 53 0.0 1.0 0.00 0.00 0.00 80 1012.1
20260504024516 46 86 0.0 1.0 0.00 0.00 0.00 80 1012.1
20260504023018 46 272 0.0 0.0 0.00 0.00 0.00 77 1012.2
20260504021515 47 18 0.0 0.0 0.00 0.00 0.00 76 1012.0
20260504020011 45 286 0.0 0.0 0.00 0.00 0.00 80 1012.2
20260504014509 45 286 0.0 1.0 0.00 0.00 0.00 77 1012.1
20260504013008 46 248 0.0 0.0 0.00 0.00 0.00 77 1012.1
20260504011515 47 248 0.0 0.0 0.00 0.00 0.00 76 1012.0
20260504010005 47 248 0.0 0.0 0.00 0.00 0.00 75 1012.0
20260504004502 48 248 0.0 0.0 0.00 0.00 0.00 71 1011.9
20260504003100 49 248 0.0 0.0 0.00 0.00 0.00 68 1011.9
20260504001608 50 249 0.0 0.0 0.00 0.00 0.00 66 1011.9
20260504000123 50 136 0.0 0.0 0.00 0.00 0.00 67 1011.8
20260503234556 49 219 0.0 0.0 0.00 0.00 0.00 70 1011.7
20260503233056 49 219 0.0 0.0 0.00 0.00 0.00 70 1011.7
20260503231552 51 220 0.0 0.0 0.00 0.00 0.00 63 1011.6
20260503230056 50 220 0.0 0.0 0.00 0.00 0.00 64 1011.5
20260503224550 50 219 0.0 1.0 0.00 0.00 0.00 69 1011.5
20260503223046 53 126 0.0 1.0 0.00 0.00 0.00 58 1011.3
20260503221543 52 289 0.0 0.0 0.00 0.00 0.00 62 1011.2
20260503220040 53 195 0.0 0.0 0.00 0.00 0.00 58 1011.1
20260503214543 53 205 0.0 1.0 0.00 0.00 0.00 60 1010.9
20260503213039 55 227 0.0 1.0 0.00 0.00 0.00 56 1011.0
20260503211538 55 138 0.0 0.0 0.00 0.00 0.00 57 1010.8
20260503210037 56 62 0.0 1.0 0.00 0.00 0.00 53 1010.7
20260503204537 56 98 0.0 1.0 0.00 0.00 0.00 54 1010.6
20260503203041 57 290 0.0 0.0 0.00 0.00 0.00 51 1010.5
20260503201538 57 109 0.0 0.0 0.00 0.00 0.00 50 1010.4
20260503200035 57 247 0.0 1.0 0.00 0.00 0.00 53 1010.3
20260503194535 56 239 0.0 4.0 0.00 0.00 0.00 52 1010.3
20260503193040 58 321 0.0 2.0 0.00 0.00 0.00 50 1010.3
20260503191538 60 209 0.0 2.0 0.00 0.00 0.00 46 1010.2
20260503190034 61 204 0.0 1.0 0.00 0.00 0.00 45 1010.0
20260503184534 62 137 0.0 1.0 0.00 0.00 0.00 41 1009.7
20260503183033 63 134 0.0 1.0 0.00 0.00 0.00 42 1009.6
20260503181532 66 148 0.0 2.0 0.00 0.00 0.00 36 1009.3
20260503180044 68 264 0.0 3.0 0.00 0.00 0.00 33 1009.1
20260503174534 71 273 1.0 3.0 0.00 0.00 0.00 27 1009.0
20260503173030 72 161 0.0 4.0 0.00 0.00 0.00 29 1008.8
20260503171532 73 150 0.0 6.0 0.00 0.00 0.00 28 1008.8